This is the latest recevied weather packets stored in our database for station/object NG7M. If no packets are shown the sender has not sent any weather packets the latest 10 day(s).
| Time | Temp. | Humidity | Pressure | Rain* | Wind** | Luminosity | Snow |
|---|---|---|---|---|---|---|---|
| 1778115004 | 18.33° C | 17% | 1018.5 hPa | 0 mm | - | - | - |
| 1778114703 | 18.33° C | 18% | 1018.5 hPa | 0 mm | - | - | - |
| 1778114404 | 17.78° C | 18% | 1018.6 hPa | 0 mm | - | - | - |
| 1778111703 | 18.33° C | 18% | 1018.4 hPa | 0 mm | - | - | - |
| 1778110204 | 18.33° C | 19% | 1018.4 hPa | 0 mm | - | - | - |
| 1778109903 | 18.33° C | 20% | 1018.4 hPa | 0 mm | - | - | - |
| 1778109604 | 17.78° C | 20% | 1018.4 hPa | 0 mm | - | - | - |
| 1778102404 | 16.67° C | 23% | 1019.4 hPa | 0 mm | - | - | - |
| 1778099704 | 17.22° C | 18% | 1019.1 hPa | 0 mm | - | - | - |
| 1778099404 | 17.22° C | 19% | 1019 hPa | 0 mm | - | - | - |
| 1778098803 | 17.22° C | 18% | 1019.2 hPa | 0 mm | - | - | - |
| 1778097004 | 16.67° C | 20% | 1019.2 hPa | 0 mm | - | - | - |
| 1778096404 | 16.11° C | 18% | 1019 hPa | 0 mm | - | - | - |
| 1778094903 | 16.11° C | 19% | 1019.1 hPa | 0 mm | - | - | - |
| 1778091903 | 14.44° C | 18% | 1019.5 hPa | 0 mm | - | - | - |
| 1778091004 | 14.44° C | 18% | 1019.5 hPa | 0 mm | - | - | - |
| 1778090403 | 14.44° C | 21% | 1019.5 hPa | 0 mm | - | - | - |
| 1778088604 | 13.33° C | 21% | 1019.5 hPa | 0 mm | - | - | - |
| 1778088004 | 13.33° C | 22% | 1019.5 hPa | 0 mm | - | - | - |
| 1778087703 | 12.78° C | 22% | 1019.1 hPa | 0 mm | - | - | - |
| 1778084104 | 11.67° C | 27% | 1018.9 hPa | 0 mm | - | - | - |
| 1778082604 | 11.11° C | 30% | 1018.6 hPa | 0 mm | - | - | - |
| 1778082304 | 11.11° C | 30% | 1018.6 hPa | 0 mm | - | - | - |
| 1778081103 | 10.56° C | 31% | 1018.3 hPa | 0 mm | - | - | - |
| 1778080503 | 10.56° C | 31% | 1018.1 hPa | 0 mm | - | - | - |
* Rain latest hour (hover to see other rain measurements)
** Current wind speed in m/s (hover to see current wind gust speed)